Zurück zum Katalog

FENGYUN 1C DEB

AktivSSO
NORAD 35135·DEBRIS·🇨🇳 China

Gestartet May 10, 1999 von Taiyuan Satellite Launch Center

Loading…

Nächste Überflüge (nächste 24 Stunden)

TLE

AktuellSource: Space-Track

Epoche: Sep 14, 2026, 11:35 UTC

1 35135U 99025DLP 26257.48266787  .00000537  00000-0  24870-3 0  9991
2 35135  98.5637 263.6991 0080806 201.7769 157.9968 14.23049102917454

Verfolge FENGYUN 1C DEB in Echtzeit mit AllMySat

Download on the App Store